Location: Alexandria
(38.8050°N, 77.0470°W)
Time: 22:52:44
(UTC-05:00)

OTV 5 (USA 277) - Pass Details

Date: 17 November 2017
Orbit: 404 x 417 km, 43.0° (Epoch: 07 September)

Event Time Altitude Azimuth Distance (km) Brightness Sun altitude
Exits shadow 04:20:20 13° 68° (ENE) 1,295 ? -29.7°
Drops below altitude 10° 04:20:46 10° 71° (ENE) 1,456 ? -29.6°
Sets 04:22:57 0° 80° (E) 2,314 ? -29.2°
